Albany, VT

7:09 AM EST on February 11, 2016 (GMT -0500)
Newport State

Weather History for KEFK - January, 2014

Change the Weather History Date:

Sunday, January 26, 2014

  Actual Average Record
Temperature  
Mean Temperature 9 °F -  
Max Temperature 21 °F 28 °F 55 °F (1950)
Min Temperature -3 °F 7 °F -27 °F (1959)
Degree Days  
Heating Degree Days 56    
Moisture  
Dew Point -10 °F    
Average Humidity 50    
Maximum Humidity 79    
Minimum Humidity 33    
Precipitation  
Precipitation 0.00 in - - ()
Sea Level Pressure  
Sea Level Pressure 29.59 in    
Wind  
Wind Speed 10 mph (SW)    
Max Wind Speed 20 mph    
Max Gust Speed 32 mph    
Visibility 8 miles    
Events Snow    
Averages and records for this station are not official NWS values.
T = Trace of Precipitation, MM = Missing Value Source: NWS Daily Summary

Daily Weather History Graph

Daily Weather History Graph

Search for Another Location

Airport or City:

Trip Planner

Search our weather history database for the weather conditions in past years. The results will help you decide how hot, cold, wet, or windy it might be!

Date:

Astronomy

Jan. 26, 2014 Rise Set
Actual Time 7:14 AM EST 4:48 PM EST
Civil Twilight 6:43 AM EST 5:20 PM EST
Nautical Twilight 6:07 AM EST 5:55 PM EST
Astronomical Twilight 5:33 AM EST 6:30 PM EST
Moon 2:49 AM EST (1/26) 12:34 PM EST (1/26)
Length of Visible Light 10h 37m
Length of Day
9h 33m
Waning Crescent, 24% of the Moon is Illuminated
Jan 26
Waning Crescent
Jan 30
New
Feb 6
First Quarter
Feb 14
Full
Feb 22
Last Quarter

Hourly Weather History & Observations

Time (EST) Temp. Windchill Dew Point Humidity Pressure Visibility Wind Dir Wind Speed Gust Speed Precip Events Conditions
12:15 AM 20.1 °F 12.3 °F 14.5 °F 79% 29.21 in 4.0 mi South 5.8 mph - N/A Snow Light Snow
12:35 AM 20.3 °F 7.2 °F 14.2 °F 77% 29.20 in 7.0 mi SW 13.8 mph - N/A Snow Light Snow
12:55 AM 21.2 °F 10.1 °F 13.1 °F 71% 29.21 in 5.0 mi WSW 10.4 mph 19.6 mph N/A Snow Light Snow
1:15 AM 19.4 °F 6.6 °F 11.8 °F 72% 29.25 in 1.0 mi WNW 12.7 mph 27.6 mph N/A Snow Light Snow
1:35 AM 14.5 °F -0.7 °F 6.1 °F 69% 29.28 in 4.0 mi WNW 15.0 mph 23.0 mph N/A Snow Light Snow
1:55 AM 12.6 °F -2.7 °F 4.8 °F 71% 29.31 in 4.0 mi WNW 13.8 mph 19.6 mph N/A Snow Light Snow
2:15 AM 10.8 °F -5.6 °F 0.7 °F 64% 29.33 in 5.0 mi West 15.0 mph 20.7 mph N/A   Haze
2:35 AM 9.0 °F -6.6 °F 0.3 °F 68% 29.35 in 3.0 mi West 12.7 mph 20.7 mph N/A Snow Light Snow
2:55 AM 7.2 °F -8.9 °F -3.5 °F 62% 29.38 in 5.0 mi WSW 12.7 mph 19.6 mph N/A   Haze
3:15 AM 5.9 °F -9.7 °F -5.3 °F 60% 29.40 in 7.0 mi WSW 11.5 mph 16.1 mph N/A   Overcast
3:35 AM 5.0 °F -13.6 °F -6.2 °F 60% 29.42 in 3.0 mi WSW 16.1 mph 28.8 mph N/A   Haze
3:55 AM 3.2 °F -15.3 °F -9.4 °F 56% 29.44 in 5.0 mi WSW 15.0 mph 27.6 mph N/A   Haze
4:15 AM 1.9 °F -17.5 °F -11.4 °F 54% 29.45 in 5.0 mi SW 16.1 mph 26.5 mph N/A   Haze
4:35 AM 1.2 °F -19.1 °F -12.6 °F 52% 29.47 in 3.0 mi WSW 17.3 mph 32.2 mph N/A   Haze
4:55 AM 0.9 °F - -13.9 °F 50% 29.49 in 10.0 mi Calm Calm - N/A   Mostly Cloudy
5:15 AM -0.4 °F -17.6 °F -14.4 °F 52% 29.50 in 10.0 mi SW 11.5 mph 24.2 mph N/A   Mostly Cloudy
5:35 AM -1.3 °F -19.6 °F -15.3 °F 51% 29.51 in 10.0 mi WSW 12.7 mph 21.9 mph N/A   Scattered Clouds
5:55 AM -1.7 °F -22.2 °F -16.1 °F 51% 29.53 in 7.0 mi West 16.1 mph 25.3 mph N/A   Scattered Clouds
6:15 AM -2.2 °F -24.7 °F -17.5 °F 48% 29.54 in 5.0 mi WSW 19.6 mph 25.3 mph N/A   Haze
6:35 AM -2.6 °F -18.4 °F -17.9 °F 48% 29.55 in 10.0 mi West 9.2 mph 20.7 mph N/A   Scattered Clouds
6:55 AM -3.1 °F -22.6 °F -18.4 °F 48% 29.56 in 10.0 mi WSW 13.8 mph 18.4 mph N/A   Clear
7:15 AM -3.1 °F -22.6 °F -17.7 °F 50% 29.58 in 7.0 mi WSW 13.8 mph 19.6 mph N/A   Mostly Cloudy
7:35 AM -3.1 °F -22.6 °F -16.8 °F 52% 29.59 in 7.0 mi WSW 13.8 mph 24.2 mph N/A   Overcast
7:55 AM -3.1 °F -23.3 °F -16.8 °F 52% 29.60 in 10.0 mi WSW 15.0 mph - N/A   Overcast
8:15 AM -3.1 °F -20.1 °F -16.2 °F 54% 29.61 in 7.0 mi West 10.4 mph 18.4 mph N/A   Overcast
8:35 AM -3.1 °F -19.1 °F -17.0 °F 52% 29.62 in 10.0 mi WSW 9.2 mph - N/A   Scattered Clouds
8:55 AM -3.1 °F -20.1 °F -17.5 °F 50% 29.62 in 10.0 mi WSW 10.4 mph 18.4 mph N/A   Clear
9:15 AM -2.4 °F -20.9 °F -18.0 °F 47% 29.62 in 10.0 mi WSW 12.7 mph 19.6 mph N/A   Clear
9:35 AM -1.8 °F -21.7 °F -18.0 °F 46% 29.63 in 7.0 mi WSW 15.0 mph 21.9 mph N/A   Clear
9:55 AM -1.7 °F -18.3 °F -17.9 °F 46% 29.64 in 7.0 mi WSW 10.4 mph - N/A   Clear
10:15 AM -0.8 °F -18.0 °F -18.0 °F 44% 29.65 in 10.0 mi WSW 11.5 mph 16.1 mph N/A   Clear
10:35 AM -0.4 °F -14.7 °F -18.8 °F 42% 29.65 in 10.0 mi West 8.1 mph 20.7 mph N/A   Clear
10:55 AM -0.0 °F -18.0 °F -18.9 °F 41% 29.65 in 10.0 mi WSW 12.7 mph 16.1 mph N/A   Clear
11:15 AM 0.5 °F -12.3 °F -19.7 °F 38% 29.64 in 10.0 mi WSW 6.9 mph 18.4 mph N/A   Clear
11:35 AM 1.0 °F -15.8 °F -19.5 °F 38% 29.65 in 10.0 mi WSW 11.5 mph 16.1 mph N/A   Clear
11:55 AM 0.1 °F -16.0 °F -20.2 °F 38% 29.66 in 10.0 mi West 10.4 mph - N/A   Scattered Clouds
12:15 PM 1.4 °F -14.5 °F -20.9 °F 35% 29.67 in 10.0 mi West 10.4 mph - N/A   Scattered Clouds
12:35 PM 2.3 °F -14.2 °F -20.9 °F 33% 29.67 in 10.0 mi West 11.5 mph 17.3 mph N/A   Clear
12:55 PM 2.7 °F -14.5 °F -20.0 °F 34% 29.67 in 10.0 mi WSW 12.7 mph 18.4 mph N/A   Clear
1:15 PM 3.4 °F -12.9 °F -18.9 °F 35% 29.67 in 10.0 mi WSW 11.5 mph - N/A   Clear
1:35 PM 4.1 °F -13.4 °F -18.6 °F 34% 29.66 in 10.0 mi WSW 13.8 mph 18.4 mph N/A   Clear
1:55 PM 4.8 °F -11.8 °F -17.3 °F 35% 29.67 in 10.0 mi WSW 12.7 mph 18.4 mph N/A   Clear
2:15 PM 5.4 °F -7.6 °F -16.1 °F 37% 29.68 in 10.0 mi SSW 8.1 mph - N/A   Scattered Clouds
2:35 PM 6.1 °F -6.8 °F -15.5 °F 37% 29.67 in 10.0 mi SW 8.1 mph - N/A   Scattered Clouds
2:55 PM 6.8 °F - -14.8 °F 37% 29.65 in 10.0 mi Calm Calm - N/A   Clear
3:15 PM 7.2 °F - -14.6 °F 36% 29.65 in 10.0 mi Calm Calm - N/A   Clear
3:35 PM 7.0 °F -4.5 °F -12.8 °F 40% 29.66 in 10.0 mi WSW 6.9 mph - N/A   Clear
3:55 PM 7.5 °F -5.0 °F -11.2 °F 42% 29.67 in 10.0 mi SW 8.1 mph - N/A   Clear
4:15 PM 7.5 °F -1.1 °F -11.2 °F 42% 29.68 in 10.0 mi South 4.6 mph - N/A   Clear
4:35 PM 7.5 °F 0.8 °F -10.7 °F 43% 29.69 in 10.0 mi SSE 3.5 mph - N/A   Clear
4:55 PM 7.2 °F - -9.9 °F 46% 29.69 in 10.0 mi Calm Calm - N/A   Scattered Clouds
5:15 PM 7.2 °F 0.3 °F -9.9 °F 46% 29.70 in 10.0 mi SSW 3.5 mph - N/A   Mostly Cloudy
5:35 PM 6.3 °F - -8.9 °F 50% 29.71 in 10.0 mi Calm Calm - N/A   Overcast
5:55 PM 5.5 °F -3.4 °F -7.6 °F 55% 29.70 in 10.0 mi SE 4.6 mph - N/A   Overcast
6:15 PM 4.5 °F -2.7 °F -8.0 °F 57% 29.69 in 10.0 mi ESE 3.5 mph - N/A   Overcast
6:35 PM 5.7 °F - -9.2 °F 50% 29.70 in 10.0 mi Calm Calm - N/A   Mostly Cloudy
6:55 PM 5.9 °F -1.1 °F -9.0 °F 50% 29.69 in 10.0 mi SE 3.5 mph - N/A   Clear
7:15 PM 6.6 °F -2.2 °F -8.3 °F 50% 29.70 in 10.0 mi South 4.6 mph - N/A   Mostly Cloudy
7:35 PM 7.7 °F -2.4 °F -8.0 °F 49% 29.69 in 10.0 mi South 5.8 mph - N/A   Overcast
7:55 PM 7.9 °F -2.2 °F -7.6 °F 49% 29.70 in 10.0 mi South 5.8 mph - N/A   Overcast
8:15 PM 8.2 °F 1.6 °F -6.9 °F 50% 29.70 in 10.0 mi South 3.5 mph - N/A   Overcast
8:35 PM 9.0 °F 0.6 °F -6.3 °F 50% 29.70 in 10.0 mi South 4.6 mph - N/A   Overcast
8:55 PM 8.4 °F -0.1 °F -4.7 °F 55% 29.70 in 7.0 mi South 4.6 mph - N/A   Overcast
9:15 PM 9.5 °F -1.5 °F -4.9 °F 52% 29.70 in 10.0 mi South 6.9 mph - N/A   Overcast
9:35 PM 9.0 °F 0.6 °F -3.8 °F 56% 29.70 in 10.0 mi SSW 4.6 mph - N/A   Overcast
9:55 PM 9.5 °F -1.5 °F -3.8 °F 55% 29.70 in 10.0 mi SSE 6.9 mph - N/A   Overcast
10:15 PM 11.3 °F -1.3 °F -2.6 °F 54% 29.70 in 10.0 mi SSE 9.2 mph - N/A   Overcast
10:35 PM 11.3 °F -0.4 °F -2.0 °F 55% 29.69 in 10.0 mi SE 8.1 mph - N/A   Overcast
10:55 PM 11.7 °F 2.3 °F -2.0 °F 54% 29.68 in 10.0 mi SSE 5.8 mph - N/A   Overcast
11:15 PM 11.7 °F 1.1 °F -2.2 °F 54% 29.68 in 10.0 mi SSE 6.9 mph - N/A   Overcast
11:35 PM 12.0 °F 0.5 °F -1.8 °F 54% 29.67 in 10.0 mi SSE 8.1 mph - N/A   Overcast
11:55 PM 12.7 °F 0.4 °F -1.8 °F 52% 29.67 in 10.0 mi SSE 9.2 mph - N/A   Overcast